Location: Killam
(52.7910°N, 111.8608°W)
Time: 22:37:28
(UTC+00:00)

Vanguard 3 - Pass Details

Date: 25 February 2026
Orbit: 507 x 3205 km, 33.4° (Epoch: 11 March)

Event Time Altitude Azimuth Distance (km) Brightness Sun altitude
Rises 18:48:26 0° 193° (SSW) 7,074 12.9 27.3°
Reaches altitude 10° 18:57:10 10° 173° (S) 5,736 13.2 27.6°
Maximum altitude 19:03:51 14° 149° (SSE) 5,022 12.6 27.8°
Drops below altitude 10° 19:09:40 10° 125° (SE) 4,862 11.8 28.0°
Sets 19:15:37 0° 102° (ESE) 5,285 11.5 28.1°
